Location: Staunton
(38.1490°N, 79.0720°W)
Time: 14:47:50
(UTC-04:00)

ISS - Pass Details

Date: 25 July 2017
Orbit: 400 x 408 km, 51.6° (Epoch: 21 July)

Event Time Altitude Azimuth Distance (km) Brightness Sun altitude
Rises 23:24:32 0° 291° (WNW) 2,307 0.8 -26.1°
Reaches altitude 10° 23:28:24 10° 338° (NNW) 1,450 0.0 -26.5°
Maximum altitude 23:28:50 10° 346° (NNW) 1,439 -0.1 -26.5°
Drops below altitude 10° 23:29:17 10° 354° (N) 1,451 -0.2 -26.6°
Sets 23:33:10 0° 41° (NE) 2,312 0.3 -26.9°
